Lid_Strength_Index
3 5 8 6 11 13 16 14 14 14 14 14 13 13 11 15 12 13 15 12 11 9 8 5 2 1 2 1 1 1 0 -0 -1 -0 -1 -1 -2 -2 -2 -2 -2 -2 -2 -2 -2 -2 -2 -1 -1
4 7 6 9 13 16 15 14 14 14 14 14 15 15 15 15 16 16 15 12 11 9 8 5 3 2 2 2 2 2 2 1 1 0 -0 -0 -1 -1 -1 -1 -1 -1 -2 -2 -2 -2 -2 -1 -1
8 7 8 11 14 16 15 14 14 14 14 14 16 16 17 16 14 16 15 13 11 10 9 6 4 3 3 3 2 2 2 2 2 1 1 1 1 1 0 0 -0 -1 -1 -1 -1 -1 -1 -1 -1
9 7 9 12 15 13 12 13 14 14 14 14 15 16 17 15 14 14 13 13 13 13 11 6 5 4 3 3 3 3 3 2 2 2 2 2 2 2 1 1 1 1 0 0 0 0 -0 -1 -0
7 9 12 14 13 14 15 13 14 15 15 15 15 16 17 15 14 13 14 13 14 13 12 10 6 5 4 4 4 4 4 3 3 3 3 3 3 3 2 2 1 1 1 1 1 1 1 1 1
9 10 14 16 14 14 14 13 14 15 15 15 16 17 17 15 14 14 14 14 13 13 12 12 9 7 6 6 6 5 5 5 5 5 5 4 4 4 4 4 3 3 2 2 2 2 2 2 2
10 11 13 13 13 14 14 14 15 15 15 16 15 16 18 16 15 14 14 14 14 13 13 13 12 11 8 8 8 7 7 7 7 7 7 7 7 7 6 6 5 4 4 3 3 3 3 3 3
10 10 13 13 15 14 15 16 16 15 16 16 16 16 17 16 14 14 15 15 14 14 14 14 13 12 13 13 10 9 9 9 9 9 10 10 10 10 9 9 8 7 6 5 5 5 5 5 3
9 12 14 13 13 12 15 15 16 16 16 17 17 17 16 14 14 15 15 15 15 14 14 14 13 13 13 14 14 12 11 12 12 12 11 13 14 13 13 10 9 9 9 8 7 6 6 7 6
11 12 12 11 13 15 15 15 15 15 16 17 17 16 15 15 15 16 16 16 16 15 14 14 13 13 13 14 15 15 15 15 15 15 15 15 15 14 14 13 11 11 11 10 9 8 9 9 9
11 12 12 13 13 14 14 15 16 15 16 15 16 17 16 16 16 16 16 16 16 15 14 14 13 14 14 14 15 15 15 15 16 16 16 16 16 16 16 16 16 16 14 15 14 13 12 12 12
13 15 14 14 13 14 14 14 15 15 16 16 15 16 16 16 16 16 16 16 16 16 15 15 15 15 16 16 16 16 15 16 16 16 16 17 17 17 17 17 17 16 16 16 15 14 13 14 14
14 15 15 15 15 16 14 16 15 16 17 17 16 16 17 17 16 16 15 16 16 16 16 16 16 16 16 16 16 16 17 17 16 16 16 16 17 17 17 17 17 17 16 16 15 14 13 14 14
16 15 16 16 16 16 14 16 16 17 17 17 17 17 17 17 16 17 16 16 16 16 16 16 16 16 16 16 16 16 16 16 15 15 15 15 15 16 16 16 17 16 15 15 14 14 13 14 14
15 17 17 17 17 17 16 16 16 17 17 18 17 18 17 17 15 15 15 15 15 15 15 15 15 15 16 16 16 16 16 16 16 16 15 15 15 16 16 16 16 16 15 14 13 12 12 12 13
16 17 19 18 17 17 17 18 17 17 17 17 18 18 17 16 15 15 14 15 15 16 16 15 14 16 16 16 16 16 16 16 16 16 16 15 15 15 16 17 16 16 15 15 14 13 12 12 13
18 19 19 18 17 18 18 18 17 18 18 18 19 18 17 17 16 15 15 15 16 16 16 16 16 16 16 16 16 16 16 17 16 16 16 15 15 15 16 16 16 15 15 15 14 13 13 13 13
19 19 19 19 19 19 20 19 19 18 18 17 18 18 18 17 16 16 15 15 16 16 16 16 16 16 16 16 17 17 17 17 16 16 16 15 15 15 16 16 15 15 15 15 14 14 13 14 13
18 20 20 20 20 20 20 20 19 19 18 18 17 18 18 17 16 16 16 16 16 16 16 16 16 16 16 17 18 18 18 17 17 16 15 15 15 15 16 16 16 15 15 15 14 14 14 14 14
18 20 21 20 19 20 22 21 20 20 19 17 16 17 17 17 17 17 17 17 17 17 16 16 16 16 16 16 17 17 18 18 17 16 16 15 15 15 15 16 15 15 15 15 15 14 14 14 14
19 19 21 19 20 22 23 22 21 19 19 18 16 16 17 16 17 18 17 18 18 18 17 16 16 16 16 16 17 17 17 17 17 17 16 16 15 15 14 15 15 15 15 15 15 15 14 14 14
19 19 19 20 20 22 22 25 23 20 19 18 17 17 16 17 16 17 17 18 18 17 17 16 16 16 16 16 16 17 17 18 18 17 16 16 15 15 14 14 14 15 15 15 14 13 14 14 14
19 18 18 19 21 23 25 25 22 21 20 18 18 17 16 16 16 16 16 15 16 17 17 17 17 16 16 16 16 17 17 17 17 17 16 16 15 14 14 14 14 14 14 15 14 14 14 14 14
18 18 18 19 21 27 24 23 23 21 18 19 18 17 16 16 16 16 15 16 17 17 17 18 17 17 16 16 16 16 17 16 16 16 16 16 16 15 14 14 15 14 14 14 15 14 14 14 14
19 19 22 25 27 26 24 24 21 19 18 17 17 17 16 16 16 16 17 17 17 17 18 18 17 17 16 16 16 16 16 16 16 16 16 16 16 16 15 15 14 15 14 14 14 15 14 14 15
19 20 22 26 27 24 22 25 20 18 18 17 17 16 17 17 17 16 16 16 16 16 17 17 17 17 16 17 16 16 16 16 16 16 16 16 16 16 15 15 15 14 14 14 14 14 15 14 14
20 22 19 24 28 27 23 21 18 18 18 18 17 17 17 17 17 16 17 17 17 17 17 16 17 16 16 16 16 16 16 16 16 16 16 16 16 15 15 15 15 14 14 14 15 15 15 15 14
20 19 21 23 27 28 24 25 21 19 18 17 18 17 17 17 17 16 16 17 17 16 16 16 16 16 16 16 16 16 16 16 16 16 16 16 15 15 15 15 14 14 14 14 15 15 14 15 15
22 23 22 21 23 26 28 23 19 16 16 16 16 16 17 17 16 16 16 17 16 16 17 16 16 16 16 15 16 16 16 16 15 15 15 15 15 14 14 14 14 14 14 14 15 15 15 15 15
23 22 21 24 26 26 25 24 18 17 17 16 17 16 17 16 16 17 16 16 17 17 17 17 16 16 15 15 15 15 15 15 16 16 15 15 15 14 14 14 14 14 14 14 14 15 15 15 15